Location: Oak Glen
(34.0495°N, 116.9470°E)
Time: 04:17:57
(UTC-08:00)

Vanguard 1 - Pass Details

Date: 25 June 2018
Orbit: 650 x 3833 km, 34.2° (Epoch: 18 December)

Event Time Altitude Azimuth Distance (km) Brightness Sun altitude
Rises 12:45:51 0° 219° (SW) 3,477 - -13.8°
Reaches altitude 10° 12:48:05 10° 210° (SSW) 2,763 - -13.5°
Exits shadow 12:48:55 15° 206° (SSW) 2,528 11.6 -13.3°
Maximum altitude 12:54:17 40° 142° (SE) 1,962 11.6 -12.5°
Drops below altitude 10° 13:04:57 10° 79° (E) 4,741 14.6 -10.8°
Sets 13:10:06 0° 74° (ENE) 6,301 15.7 -9.9°
